Location: Cahas Mountain Overlook
(37.0833°N, 80.1000°W)
Time: 19:49:21
(UTC-04:00)

Tiros 1 - Pass Details

Date: 12 February 2026
Orbit: 618 x 649 km, 48.4° (Epoch: 13 March)

Event Time Altitude Azimuth Distance (km) Brightness Sun altitude
Rises 12:48:08 0° 281° (W) 2,889 10.4 39.3°
Reaches altitude 10° 12:50:53 10° 296° (WNW) 1,981 9.6 39.3°
Maximum altitude 12:54:27 22° 348° (NNW) 1,350 8.6 39.2°
Drops below altitude 10° 12:58:01 10° 40° (NE) 1,978 9.3 39.1°
Sets 13:00:46 0° 56° (NE) 2,885 10.2 39.0°
